sat.trackr.live / text

‹ back to catalog

STARLINK-5202

NORAD 54761 · 2022-175D

PAYLOAD ACTIVE UNKNOWN

§ Identity

Operator
Country
US
Launch date
2022-12-17
Launch site
AFETR
Launch vehicle
Mass (kg)
RCS (m²)

Purposes: comms

External: N2YO · Heavens-Above · Gunter

§ Orbital elements

Epoch: 2026-09-20T13:01:33.221568Z

Period
94.01 min
Inclination
53.1590°
Eccentricity
0.0001399
Mean motion
15.31698955 rev/d
Perigee alt
469.8 km
Apogee alt
471.7 km
Semi-major
6,848.9 km
B*
4.3143e-5
RAAN
237.6320°
Arg perigee
85.2736°
Mean anomaly
274.8425°
Rev number
20,949

§ Raw data

STARLINK-52021 54761U 22175D   26263.54274562  .00000974  00000+0  43143-4 0  99922 54761  53.1590 237.6320 0001399  85.2736 274.8425 15.31698955209492

JSON: /api/v1/satellites/54761 · /tle

For live sub-satellite position, see the globe view (requires WebGL).

§ Visibility from observer

Set your observer location to see the next 7 days of passes ≥ 10°. The values pass through the URL so the page stays shareable.

No JS? Fill the form by hand. The geolocation button needs JavaScript.